Time,TemperatureF,DewpointF,PressureIn,WindDirection,WindDirectionDegrees,WindSpeedMPH,WindSpeedGustMPH,Humidity,HourlyPrecipIn,Conditions,Clouds,dailyrainin,SoftwareType,DateUTC
2013-03-14 00:02:00,25.5,21.1,29.68,West,270,3.1,5.4,83,0.00,,,0.00,pywws,2013-03-13 23:02:00,
2013-03-14 00:12:00,25.5,21.1,29.69,North,0,2.2,4.5,83,0.00,,,0.00,pywws,2013-03-13 23:12:00,
2013-03-14 00:22:00,25.5,21.1,29.69,WSW,248,3.1,4.5,83,0.00,,,0.00,pywws,2013-03-13 23:22:00,
2013-03-14 00:32:00,25.3,20.9,29.69,North,0,3.1,6.0,83,0.00,,,0.00,pywws,2013-03-13 23:32:00,
2013-03-14 00:42:00,25.3,20.9,29.69,NNW,338,2.2,3.8,83,0.00,,,0.00,pywws,2013-03-13 23:42:00,
2013-03-14 00:52:00,25.3,20.9,29.70,NW,315,3.1,4.5,83,0.00,,,0.00,pywws,2013-03-13 23:52:00,
2013-03-14 01:02:00,25.3,20.9,29.70,NW,315,3.1,5.4,83,0.00,,,0.00,pywws,2013-03-14 00:02:00,
2013-03-14 01:12:00,25.2,20.7,29.70,North,0,3.8,6.9,83,0.00,,,0.00,pywws,2013-03-14 00:12:00,
2013-03-14 01:22:00,25.2,20.7,29.70,NNW,338,3.1,3.8,83,0.00,,,0.00,pywws,2013-03-14 00:22:00,
2013-03-14 01:32:00,25.2,20.7,29.70,North,0,1.6,2.2,83,0.00,,,0.00,pywws,2013-03-14 00:32:00,
2013-03-14 01:42:00,25.2,20.7,29.70,North,0,3.8,6.0,83,0.00,,,0.00,pywws,2013-03-14 00:42:00,
2013-03-14 01:52:00,25.0,20.0,29.70,North,0,3.1,6.0,81,0.00,,,0.00,pywws,2013-03-14 00:52:00,
2013-03-14 02:02:00,25.0,20.3,29.69,North,0,1.6,3.1,82,0.00,,,0.00,pywws,2013-03-14 01:02:00,
2013-03-14 02:12:00,25.0,20.3,29.69,WSW,248,3.1,5.4,82,0.00,,,0.00,pywws,2013-03-14 01:12:00,
2013-03-14 02:22:00,25.0,20.3,29.69,North,0,2.2,5.4,82,0.00,,,0.00,pywws,2013-03-14 01:22:00,
2013-03-14 02:32:00,25.0,20.3,29.69,North,0,3.8,6.0,82,0.00,,,0.00,pywws,2013-03-14 01:32:00,
2013-03-14 02:42:00,25.0,20.6,29.69,NNW,338,2.2,4.5,83,0.00,,,0.00,pywws,2013-03-14 01:42:00,
2013-03-14 02:52:00,25.0,20.6,29.69,NW,315,1.6,4.5,83,0.00,,,0.00,pywws,2013-03-14 01:52:00,
2013-03-14 03:02:00,25.0,20.6,29.68,NNW,338,3.1,5.4,83,0.00,,,0.00,pywws,2013-03-14 02:02:00,
2013-03-14 03:12:00,25.0,20.6,29.68,NW,315,2.2,4.5,83,0.00,,,0.00,pywws,2013-03-14 02:12:00,
2013-03-14 03:22:00,24.8,20.4,29.68,NW,315,3.8,6.0,83,0.00,,,0.00,pywws,2013-03-14 02:22:00,
2013-03-14 03:32:00,24.8,20.4,29.68,NNW,338,3.1,4.5,83,0.00,,,0.00,pywws,2013-03-14 02:32:00,
2013-03-14 03:42:00,24.8,20.4,29.68,West,270,0.7,3.1,83,0.00,,,0.00,pywws,2013-03-14 02:42:00,
2013-03-14 03:52:00,25.0,20.8,29.68,WSW,248,2.2,4.5,84,0.00,,,0.00,pywws,2013-03-14 02:52:00,
2013-03-14 04:02:00,25.0,20.8,29.68,NW,315,0.7,1.6,84,0.00,,,0.00,pywws,2013-03-14 03:02:00,
2013-03-14 04:12:00,24.8,20.9,29.69,West,270,3.1,4.5,85,0.00,,,0.00,pywws,2013-03-14 03:12:00,
2013-03-14 04:22:00,24.6,20.8,29.68,WSW,248,3.1,5.4,85,0.00,,,0.00,pywws,2013-03-14 03:22:00,
2013-03-14 04:32:00,24.6,21.0,29.69,West,270,3.1,6.0,86,0.00,,,0.00,pywws,2013-03-14 03:32:00,
2013-03-14 04:42:00,24.4,20.9,29.70,SW,225,3.1,5.4,86,0.00,,,0.00,pywws,2013-03-14 03:42:00,
2013-03-14 04:52:00,24.3,20.7,29.69,West,270,2.2,3.8,86,0.00,,,0.00,pywws,2013-03-14 03:52:00,
2013-03-14 05:02:00,24.3,20.7,29.69,NW,315,2.2,4.5,86,0.00,,,0.00,pywws,2013-03-14 04:02:00,
2013-03-14 05:12:00,24.3,21.0,29.70,SW,225,1.6,3.1,87,0.00,,,0.00,pywws,2013-03-14 04:12:00,
2013-03-14 05:22:00,24.3,21.0,29.70,NW,315,0.7,1.6,87,0.00,,,0.00,pywws,2013-03-14 04:22:00,
2013-03-14 05:32:00,24.3,21.0,29.70,West,270,1.6,3.1,87,0.00,,,0.00,pywws,2013-03-14 04:32:00,
2013-03-14 05:42:00,24.3,21.0,29.70,NW,315,0.0,1.6,87,0.00,,,0.00,pywws,2013-03-14 04:42:00,
2013-03-14 05:52:00,24.3,21.2,29.70,West,270,1.6,3.8,88,0.00,,,0.00,pywws,2013-03-14 04:52:00,
2013-03-14 06:02:00,24.3,21.2,29.71,NW,315,1.6,3.1,88,0.00,,,0.00,pywws,2013-03-14 05:02:00,
2013-03-14 06:12:00,24.3,21.2,29.71,NW,315,0.7,2.2,88,0.00,,,0.00,pywws,2013-03-14 05:12:00,
2013-03-14 06:22:00,24.1,21.1,29.71,SSW,202,1.6,3.1,88,0.00,,,0.00,pywws,2013-03-14 05:22:00,
2013-03-14 06:32:00,24.3,21.2,29.71,WNW,292,2.2,4.5,88,0.00,,,0.00,pywws,2013-03-14 05:32:00,
2013-03-14 06:42:00,24.1,21.1,29.72,NW,315,1.6,3.1,88,0.00,,,0.00,pywws,2013-03-14 05:42:00,
2013-03-14 06:52:00,23.9,20.3,29.72,NW,315,2.2,4.5,86,0.00,,,0.00,pywws,2013-03-14 05:52:00,
2013-03-14 07:02:00,23.7,19.9,29.72,NE,45,1.6,3.1,85,0.00,,,0.00,pywws,2013-03-14 06:02:00,
2013-03-14 07:12:00,23.7,19.6,29.72,North,0,2.2,4.5,84,0.00,,,0.00,pywws,2013-03-14 06:12:00,
2013-03-14 07:22:00,23.7,19.3,29.72,North,0,3.1,4.5,83,0.00,,,0.00,pywws,2013-03-14 06:22:00,
2013-03-14 07:32:00,23.7,19.3,29.73,North,0,3.1,4.5,83,0.00,,,0.00,pywws,2013-03-14 06:32:00,
2013-03-14 07:42:00,23.7,19.6,29.72,NNE,22,0.7,2.2,84,0.00,,,0.00,pywws,2013-03-14 06:42:00,
2013-03-14 07:52:00,23.9,19.5,29.73,NW,315,1.6,2.2,83,0.00,,,0.00,pywws,2013-03-14 06:52:00,
2013-03-14 08:02:00,23.7,18.8,29.72,NNW,338,5.4,8.3,81,0.00,,,0.00,pywws,2013-03-14 07:02:00,
2013-03-14 08:12:00,23.7,18.5,29.73,North,0,3.8,5.4,80,0.00,,,0.00,pywws,2013-03-14 07:12:00,
2013-03-14 08:22:00,23.5,18.3,29.72,North,0,3.1,4.5,80,0.00,,,0.00,pywws,2013-03-14 07:22:00,
2013-03-14 08:32:00,23.7,18.5,29.72,West,270,0.0,0.7,80,0.00,,,0.00,pywws,2013-03-14 07:32:00,
2013-03-14 08:42:00,23.9,18.1,29.72,NNE,22,4.5,8.3,78,0.00,,,0.00,pywws,2013-03-14 07:42:00,
2013-03-14 08:52:00,23.9,18.1,29.71,NW,315,6.9,13.0,78,0.00,,,0.00,pywws,2013-03-14 07:52:00,
2013-03-14 09:02:00,23.9,17.8,29.71,North,0,5.4,8.3,77,0.00,,,0.00,pywws,2013-03-14 08:02:00,
2013-03-14 09:12:00,24.4,18.6,29.71,NNW,338,1.6,3.1,78,0.00,,,0.00,pywws,2013-03-14 08:12:00,
2013-03-14 09:22:00,24.4,18.0,29.71,NE,45,3.8,6.0,76,0.00,,,0.00,pywws,2013-03-14 08:22:00,
2013-03-14 09:32:00,24.6,18.5,29.72,North,0,1.6,4.5,77,0.00,,,0.00,pywws,2013-03-14 08:32:00,
2013-03-14 09:42:00,24.4,18.0,29.72,North,0,3.8,7.6,76,0.00,,,0.00,pywws,2013-03-14 08:42:00,
2013-03-14 09:52:00,24.6,18.2,29.72,East,90,2.2,3.8,76,0.00,,,0.00,pywws,2013-03-14 08:52:00,
2013-03-14 10:02:00,25.2,18.7,29.72,NW,315,3.1,6.9,76,0.00,,,0.00,pywws,2013-03-14 09:02:00,
2013-03-14 10:12:00,25.7,19.2,29.72,NW,315,0.0,1.6,76,0.00,,,0.00,pywws,2013-03-14 09:12:00,
2013-03-14 10:22:00,26.2,19.4,29.73,NE,45,2.2,5.4,75,0.00,,,0.00,pywws,2013-03-14 09:22:00,
2013-03-14 10:32:00,26.4,19.6,29.73,West,270,4.5,6.9,75,0.00,,,0.00,pywws,2013-03-14 09:32:00,
2013-03-14 10:42:00,26.4,19.3,29.74,NNE,22,4.5,6.0,74,0.00,,,0.00,pywws,2013-03-14 09:42:00,
2013-03-14 10:52:00,26.2,18.8,29.74,North,0,3.8,6.0,73,0.00,,,0.00,pywws,2013-03-14 09:52:00,
2013-03-14 11:02:00,26.2,18.8,29.74,NNE,22,2.2,4.5,73,0.00,,,0.00,pywws,2013-03-14 10:02:00,
2013-03-14 11:12:00,27.0,19.2,29.74,North,0,2.2,3.8,72,0.00,,,0.00,pywws,2013-03-14 10:12:00,
2013-03-14 11:22:00,27.1,19.0,29.74,North,0,4.5,6.9,71,0.00,,,0.00,pywws,2013-03-14 10:22:00,
2013-03-14 11:32:00,27.1,19.0,29.74,North,0,6.0,9.8,71,0.00,,,0.00,pywws,2013-03-14 10:32:00,
2013-03-14 11:42:00,27.1,19.0,29.73,NNE,22,4.5,7.6,71,0.00,,,0.00,pywws,2013-03-14 10:42:00,
2013-03-14 11:52:00,27.5,19.7,29.73,NW,315,6.9,11.4,72,0.00,,,0.00,pywws,2013-03-14 10:52:00,
2013-03-14 12:02:00,27.7,19.5,29.73,NW,315,3.1,6.9,71,0.00,,,0.00,pywws,2013-03-14 11:02:00,
2013-03-14 12:12:00,27.9,19.7,29.72,NW,315,5.4,9.2,71,0.00,,,0.00,pywws,2013-03-14 11:12:00,
2013-03-14 12:22:00,27.7,19.2,29.72,North,0,3.1,6.0,70,0.00,,,0.00,pywws,2013-03-14 11:22:00,
2013-03-14 12:32:00,27.9,19.7,29.72,NNW,338,2.2,4.5,71,0.00,,,0.00,pywws,2013-03-14 11:32:00,
2013-03-14 12:42:00,27.7,19.5,29.72,North,0,2.2,5.4,71,0.00,,,0.00,pywws,2013-03-14 11:42:00,
2013-03-14 12:52:00,27.9,19.4,29.72,North,0,3.8,5.4,70,0.00,,,0.00,pywws,2013-03-14 11:52:00,
2013-03-14 13:02:00,27.5,19.4,29.72,West,270,3.8,8.3,71,0.00,,,0.00,pywws,2013-03-14 12:02:00,
2013-03-14 13:12:00,27.1,19.0,29.72,NW,315,0.7,6.9,71,0.00,,,0.00,pywws,2013-03-14 12:12:00,
2013-03-14 13:22:00,27.3,19.2,29.71,NNW,338,5.4,9.8,71,0.00,,,0.00,pywws,2013-03-14 12:22:00,
2013-03-14 13:32:00,27.7,19.2,29.71,North,0,3.1,6.0,70,0.00,,,0.00,pywws,2013-03-14 12:32:00,
2013-03-14 13:42:00,28.6,20.4,29.71,NW,315,2.2,6.9,71,0.00,,,0.00,pywws,2013-03-14 12:42:00,
2013-03-14 13:52:00,28.8,20.2,29.70,NW,315,3.1,6.9,70,0.00,,,0.00,pywws,2013-03-14 12:52:00,
2013-03-14 14:02:00,28.6,19.7,29.71,NE,45,3.1,5.4,69,0.00,,,0.00,pywws,2013-03-14 13:02:00,
2013-03-14 14:12:00,29.3,20.4,29.71,NE,45,4.5,6.9,69,0.00,,,0.00,pywws,2013-03-14 13:12:00,
2013-03-14 14:22:00,29.3,20.8,29.70,North,0,1.6,3.8,70,0.00,,,0.00,pywws,2013-03-14 13:22:00,
2013-03-14 14:32:00,30.2,21.3,29.70,North,0,2.2,4.5,69,0.00,,,0.00,pywws,2013-03-14 13:32:00,
2013-03-14 14:42:00,30.9,21.6,29.70,East,90,1.6,3.8,68,0.00,,,0.00,pywws,2013-03-14 13:42:00,
2013-03-14 14:52:00,30.4,20.8,29.70,NW,315,4.5,12.1,67,0.00,,,0.00,pywws,2013-03-14 13:52:00,
2013-03-14 15:02:00,29.7,20.1,29.70,NW,315,3.1,6.0,67,0.00,,,0.00,pywws,2013-03-14 14:02:00,
2013-03-14 15:12:00,29.5,19.5,29.70,North,0,2.2,5.4,66,0.00,,,0.00,pywws,2013-03-14 14:12:00,
2013-03-14 15:22:00,30.0,20.1,29.70,North,0,6.9,11.4,66,0.00,,,0.00,pywws,2013-03-14 14:22:00,
2013-03-14 15:32:00,29.7,19.4,29.70,North,0,5.4,8.3,65,0.00,,,0.00,pywws,2013-03-14 14:32:00,
2013-03-14 15:42:00,29.5,18.8,29.70,NE,45,3.8,6.0,64,0.00,,,0.00,pywws,2013-03-14 14:42:00,
2013-03-14 15:52:00,29.5,19.2,29.70,North,0,3.1,6.0,65,0.00,,,0.00,pywws,2013-03-14 14:52:00,
2013-03-14 16:02:00,29.5,19.2,29.70,North,0,4.5,8.3,65,0.00,,,0.00,pywws,2013-03-14 15:02:00,
2013-03-14 16:12:00,29.3,18.7,29.69,NW,315,5.4,9.2,64,0.00,,,0.00,pywws,2013-03-14 15:12:00,
2013-03-14 16:22:00,28.9,18.3,29.70,North,0,3.8,6.9,64,0.00,,,0.00,pywws,2013-03-14 15:22:00,
2013-03-14 16:32:00,28.8,17.8,29.70,NW,315,8.3,12.1,63,0.00,,,0.00,pywws,2013-03-14 15:32:00,
2013-03-14 16:42:00,28.4,16.7,29.70,North,0,5.4,8.3,61,0.00,,,0.00,pywws,2013-03-14 15:42:00,
2013-03-14 16:52:00,28.2,16.1,29.71,NNW,338,8.3,14.5,60,0.00,,,0.00,pywws,2013-03-14 15:52:00,
2013-03-14 17:02:00,28.0,16.4,29.71,North,0,3.8,7.6,61,0.00,,,0.00,pywws,2013-03-14 16:02:00,
2013-03-14 17:12:00,27.9,15.8,29.71,NE,45,5.4,9.2,60,0.00,,,0.00,pywws,2013-03-14 16:12:00,
2013-03-14 17:22:00,27.7,15.6,29.72,NW,315,4.5,6.0,60,0.00,,,0.00,pywws,2013-03-14 16:22:00,
2013-03-14 17:32:00,27.5,15.5,29.72,NE,45,6.0,8.3,60,0.00,,,0.00,pywws,2013-03-14 16:32:00,
2013-03-14 17:42:00,27.1,15.1,29.72,North,0,5.4,9.2,60,0.00,,,0.00,pywws,2013-03-14 16:42:00,
2013-03-14 17:52:00,26.8,15.2,29.73,NNW,338,3.1,6.0,61,0.00,,,0.00,pywws,2013-03-14 16:52:00,
2013-03-14 18:02:00,26.6,15.4,29.74,North,0,3.8,7.6,62,0.00,,,0.00,pywws,2013-03-14 17:02:00,
2013-03-14 18:12:00,26.2,15.0,29.73,NE,45,3.8,6.9,62,0.00,,,0.00,pywws,2013-03-14 17:12:00,
2013-03-14 18:22:00,26.1,14.5,29.74,NNE,22,6.9,12.1,61,0.00,,,0.00,pywws,2013-03-14 17:22:00,
2013-03-14 18:32:00,25.9,14.3,29.73,North,0,3.8,7.6,61,0.00,,,0.00,pywws,2013-03-14 17:32:00,
2013-03-14 18:42:00,25.9,13.6,29.73,NE,45,7.6,13.0,59,0.00,,,0.00,pywws,2013-03-14 17:42:00,
2013-03-14 18:52:00,25.9,13.2,29.74,East,90,7.6,13.0,58,0.00,,,0.00,pywws,2013-03-14 17:52:00,
2013-03-14 19:02:00,25.9,12.8,29.74,North,0,6.9,10.7,57,0.00,,,0.00,pywws,2013-03-14 18:02:00,
2013-03-14 19:12:00,25.9,12.0,29.74,NW,315,9.2,13.6,55,0.00,,,0.00,pywws,2013-03-14 18:12:00,
2013-03-14 19:22:00,26.1,12.1,29.74,North,0,5.4,7.6,55,0.00,,,0.00,pywws,2013-03-14 18:22:00,
2013-03-14 19:32:00,26.1,11.7,29.75,NW,315,3.8,6.0,54,0.00,,,0.00,pywws,2013-03-14 18:32:00,
2013-03-14 19:42:00,25.9,12.0,29.75,North,0,3.1,4.5,55,0.00,,,0.00,pywws,2013-03-14 18:42:00,
2013-03-14 19:52:00,25.7,12.2,29.75,North,0,2.2,3.1,56,0.00,,,0.00,pywws,2013-03-14 18:52:00,
2013-03-14 20:02:00,25.7,12.2,29.75,NW,315,3.8,6.9,56,0.00,,,0.00,pywws,2013-03-14 19:02:00,
2013-03-14 20:12:00,25.7,13.0,29.75,NW,315,4.5,7.6,58,0.00,,,0.00,pywws,2013-03-14 19:12:00,
2013-03-14 20:22:00,25.7,13.8,29.75,NW,315,4.5,6.9,60,0.00,,,0.00,pywws,2013-03-14 19:22:00,
2013-03-14 20:32:00,25.5,14.0,29.75,NW,315,6.0,9.2,61,0.00,,,0.00,pywws,2013-03-14 19:32:00,
2013-03-14 20:42:00,25.5,14.0,29.75,West,270,3.1,5.4,61,0.00,,,0.00,pywws,2013-03-14 19:42:00,
2013-03-14 20:52:00,25.5,14.0,29.76,NE,45,3.8,6.9,61,0.00,,,0.00,pywws,2013-03-14 19:52:00,
2013-03-14 21:02:00,25.7,14.1,29.76,West,270,4.5,7.6,61,0.00,,,0.00,pywws,2013-03-14 20:02:00,
2013-03-14 21:12:00,25.7,14.1,29.76,North,0,4.5,7.6,61,0.00,,,0.00,pywws,2013-03-14 20:12:00,
2013-03-14 21:22:00,25.7,14.1,29.76,North,0,3.1,8.3,61,0.00,,,0.00,pywws,2013-03-14 20:22:00,
2013-03-14 21:32:00,25.5,14.0,29.75,North,0,2.2,6.0,61,0.00,,,0.00,pywws,2013-03-14 20:32:00,
2013-03-14 21:42:00,25.7,14.1,29.75,North,0,7.6,12.1,61,0.00,,,0.00,pywws,2013-03-14 20:42:00,
2013-03-14 21:52:00,25.7,14.5,29.75,NW,315,6.0,8.3,62,0.00,,,0.00,pywws,2013-03-14 20:52:00,
2013-03-14 22:02:00,25.3,14.9,29.75,NW,315,4.5,6.9,64,0.00,,,0.00,pywws,2013-03-14 21:02:00,
2013-03-14 22:12:00,25.2,15.1,29.75,NW,315,4.5,7.6,65,0.00,,,0.00,pywws,2013-03-14 21:12:00,
2013-03-14 22:22:00,25.3,14.5,29.75,NW,315,3.8,6.9,63,0.00,,,0.00,pywws,2013-03-14 21:22:00,
2013-03-14 22:32:00,25.5,15.1,29.75,North,0,3.1,4.5,64,0.00,,,0.00,pywws,2013-03-14 21:32:00,
2013-03-14 22:42:00,25.5,14.7,29.75,North,0,5.4,7.6,63,0.00,,,0.00,pywws,2013-03-14 21:42:00,
2013-03-14 22:52:00,25.5,15.1,29.75,North,0,3.1,6.0,64,0.00,,,0.00,pywws,2013-03-14 21:52:00,
2013-03-14 23:02:00,25.5,15.1,29.75,NNW,338,3.8,6.9,64,0.00,,,0.00,pywws,2013-03-14 22:02:00,
2013-03-14 23:12:00,25.5,15.1,29.75,North,0,7.6,11.4,64,0.00,,,0.00,pywws,2013-03-14 22:12:00,
2013-03-14 23:22:00,25.5,15.4,29.75,North,0,3.8,7.6,65,0.00,,,0.00,pywws,2013-03-14 22:22:00,
2013-03-14 23:32:00,25.5,15.1,29.75,NW,315,4.5,8.3,64,0.00,,,0.00,pywws,2013-03-14 22:32:00,
2013-03-14 23:42:00,25.3,15.2,29.74,North,0,6.0,9.8,65,0.00,,,0.00,pywws,2013-03-14 22:42:00,
2013-03-14 23:52:00,25.3,15.2,29.75,North,0,6.0,9.8,65,0.00,,,0.00,pywws,2013-03-14 22:52:00,